Home > Time Zones > World Clock > Weather > Russia > Ufa > Past weeks

Flag for Russia Weather past 2 weeks in Ufa, Russia

Now
57 °F

Broken clouds.


Feels Like: 55 °F
Forecast: 45 / 62 °F
Wind: 10 mph from North

Location: Ufa

Current Time: Jul 25, 2014 at 10:17:36 AM

Latest Report: Jul 25, 2014 at 10:00 AM


Visibility: N/A

Pressure: 29.77 "Hg

Humidity: 77%

Dew point: 50 °F

Location of UfaLocation

Historic Weather in Ufa — Graph

°F

Ufa temperature yesterday

Maximum temperature yesterday: 72 °F (at 4:00 PM)
Minimum temperature yesterday: 54 °F (at 4:30 AM)
Average temperature yesterday: 63 °F

Past Weeks' High & Low Weather Summary

 TemperatureHumidityPressure
High84 °F (Jul 16, 4:30 PM)100% (Jul 18, 7:00 AM)30.04 "Hg (Jul 18, 7:00 AM)
Low41 °F (Jul 19, 4:30 AM)28% (Jul 15, 4:30 PM)29.50 "Hg (Jul 23, 8:30 AM)
Average60 °F70%29.81 "Hg
* Reported Jul 10 8:00 AM — Jul 25 8:30 AM, Ufa, Weather by CustomWeather, © 2014

Note: Actual official high and low records may vary slightly from our data, if they occured in-between our weather recording intervals... More about our weather records

Advertising

Ufa weather history for previous 24 hours

 ConditionsComfort  
Time TempWeatherWind HumidityBarometerVisibility
8:30 AM
Jul 25
55 °FBroken clouds.10 mph88%29.74 "HgN/A
8:00 AM55 °FBroken clouds.6 mph88%29.74 "HgN/A
7:30 AM55 °FBroken clouds.3 mph82%29.74 "HgN/A
7:00 AM55 °FBroken clouds.No wind82%29.71 "HgN/A
6:30 AM55 °FBroken clouds.No wind82%29.71 "HgN/A
6:00 AM54 °FPartly cloudy.No wind88%29.71 "HgN/A
5:30 AM52 °FPartly cloudy.No wind88%29.71 "HgN/A
5:00 AM54 °FPassing clouds.No wind82%29.71 "HgN/A
4:30 AM54 °FPassing clouds.No wind88%29.71 "HgN/A
4:00 AM55 °FPassing clouds.No wind82%29.71 "HgN/A
3:30 AM55 °FClear.1 mph77%29.74 "Hg10 mi
3:00 AM55 °FClear.10 mph77%29.74 "Hg10 mi
2:30 AM54 °FClear.10 mph82%29.74 "Hg10 mi
2:00 AM54 °FClear.8 mph82%29.74 "Hg10 mi
1:30 AM54 °FClear.6 mph82%29.74 "Hg10 mi
1:00 AM52 °FPassing clouds.3 mph88%29.77 "HgN/A
12:30 AM52 °FClear.3 mph88%29.77 "Hg10 mi
12:00 AM55 °FPassing clouds.6 mph77%29.77 "HgN/A
11:30 PM
Jul 24
55 °FClear.6 mph77%29.77 "Hg10 mi
11:00 PM57 °FClear.3 mph72%29.77 "Hg10 mi
10:30 PM57 °FSunny.1 mph72%29.77 "Hg10 mi
10:00 PM63 °FSunny.No wind56%29.80 "Hg10 mi
9:30 PM64 °FPassing clouds.3 mph56%29.80 "HgN/A
9:00 PM66 °FSunny.8 mph49%29.80 "Hg10 mi
8:30 PM68 °FScattered clouds.13 mph43%29.80 "HgN/A
8:00 PM68 °FScattered clouds.13 mph43%29.80 "HgN/A
7:30 PM70 °FScattered clouds.15 mph35%29.80 "HgN/A
7:00 PM70 °FScattered clouds.17 mph33%29.80 "HgN/A
6:30 PM70 °FScattered clouds.15 mph33%29.80 "HgN/A
6:00 PM70 °FScattered clouds.17 mph33%29.80 "HgN/A
5:30 PM72 °FScattered clouds.13 mph38%29.80 "HgN/A
5:00 PM72 °FPartly sunny.13 mph38%29.80 "HgN/A
4:30 PM72 °FPartly sunny.10 mph44%29.80 "HgN/A
4:00 PM72 °FPartly sunny.15 mph47%29.80 "HgN/A
3:30 PM70 °FPartly sunny.17 mph50%29.77 "HgN/A
3:00 PM70 °FPartly sunny.13 mph50%29.77 "HgN/A
2:30 PM68 °FPartly sunny.10 mph56%29.77 "HgN/A
2:00 PM70 °FPartly sunny.13 mph53%29.80 "HgN/A
1:30 PM68 °FPartly sunny.10 mph56%29.77 "HgN/A
1:00 PM68 °FPartly sunny.10 mph60%29.77 "HgN/A
12:30 PM70 °FPartly sunny.6 mph57%29.77 "HgN/A
12:00 PM68 °FBroken clouds.6 mph60%29.77 "HgN/A
11:30 AM66 °FBroken clouds.6 mph68%29.77 "HgN/A
11:00 AM66 °FBroken clouds.1 mph68%29.77 "HgN/A
10:30 AM64 °FBroken clouds.1 mph73%29.77 "HgN/A
10:00 AM63 °FBroken clouds.3 mph77%29.77 "HgN/A
Weather by CustomWeather, © 2014

See weather overviewHow to use our weather pages